Location: ??
(34.7286°N, 135.3846°E)
Time: 02:58:20
(UTC+00:00)

Daily predictions for brighter satellites

Satellite Brightness Start Highest point End
(mag) Time Altitude Azimuth Time Altitude Azimuth Time Altitude Azimuth
Centaur D AC-29 4.4 07:02:20 10° SW 07:08:55 56° SSE 08:27:18 10° E
BREEZE-M DEB (TANK) 4.2 08:25:14 10° S 08:28:06 31° ESE 08:34:41 10° ENE
Radarsat Rocket 4.2 08:23:12 10° SSE 08:29:26 80° WSW 08:35:18 10° NNW
CZ-4B R/B 3.3 08:24:16 10° SSE 08:29:54 87° ENE 08:35:28 10° NNW
Cosmos 1656 3.9 08:25:13 10° S 08:30:31 50° ESE 08:35:55 10° NNE
Meteor 2-14 Rocket 4.4 08:28:09 10° N 08:34:18 74° E 08:40:22 10° SSE
Cosmos 44 4.4 08:31:58 10° SW 08:36:07 40° NW 08:40:32 10° NNE
Cosmos 1553 Rocket 4.5 08:32:14 10° SSE 08:38:05 39° E 08:43:51 10° NNE
CZ-4B R/B 1.5 08:37:17 10° N 08:40:27 71° WNW 08:43:31 10° SSW
Cosmos 1455 3.8 08:39:34 10° ESE 08:41:41 15° E 08:43:50 10° NE
NOAA 12 4.3 08:39:01 10° S 08:44:18 82° WSW 08:49:38 10° NNW
Cosmos 1689 Rocket 2.6 08:41:46 10° NNE 08:44:27 36° E 08:47:07 10° SSE
YAOGAN 6 4.1 08:41:10 10° S 08:44:37 42° W 08:48:08 10° NNW
USA 281 3.3 08:39:19 10° SSE 08:45:53 87° ENE 08:52:29 10° NNW
COSMO-SKYMED 1 2.7 08:42:36 10° NNE 08:46:51 52° E 08:51:03 10° S
Cosmos 2227 Rocket 3.1 08:43:22 10° N 08:48:06 27° ENE 08:52:50 10° ESE
Atlas Centaur 2 3.5 08:45:19 10° WSW 08:53:17 57° SSE 09:00:52 13° E
IRS-1C Rocket 4.3 08:48:45 10° SE 08:53:44 46° ENE 08:58:45 10° N
YAOGAN 1 3.8 08:51:53 10° ESE 08:55:01 20° ENE 08:58:09 10° NNE
Cosmos 1825 Rocket 4.1 08:51:12 10° NNW 08:55:35 63° W 08:59:55 10° S
Okean O Rocket 2.6 08:51:40 10° S 08:55:54 51° W 09:00:09 10° NNW
Delta 2 Rocket 4.1 08:51:55 10° W 08:57:02 77° SSW 09:02:18 12° ESE
Cosmos 1697 Rocket 3.0 08:52:35 10° S 08:57:51 44° ESE 09:03:09 10° NE
Cosmos 1939 Rocket 3.0 08:56:29 10° SSE 09:00:20 49° ENE 09:04:08 10° N
MOS 1 Rocket 4.3 09:02:06 10° NE 09:06:15 28° E 09:10:34 10° SSE
Cosmos 968 Rocket 4.1 09:02:23 10° N 09:07:04 33° ENE 09:11:40 10° SE
NOAA 11 4.3 09:02:52 10° S 09:08:19 82° WSW 09:13:46 10° NNW
Cosmos 1745 Rocket 4.4 09:04:47 10° N 09:10:39 39° ENE 09:16:31 10° SE
Helios 1A Rocket 3.2 09:06:58 10° SE 09:10:52 43° ENE 09:14:46 10° N
Cosmos 1400 Rocket 3.9 09:13:10 10° SSW 09:17:09 48° W 09:21:08 10° N
Cosmos 1980 Rocket 2.7 09:15:50 10° SSE 09:20:53 35° ESE 09:24:06 19° NE
Cosmos 44 Rocket 3.4 09:16:56 10° S 09:21:28 50° ESE 09:24:30 20° NE
Cosmos 1408 3.2 09:18:22 10° NNE 09:21:41 32° E 09:21:45 32° E
Cosmos 1892 2.7 09:20:25 10° N 09:24:16 60° E 09:28:04 10° SSE
CZ-4 R/B 1.4 09:21:55 10° SSE 09:25:43 51° ENE 09:29:28 10° N
Cosmos 2297 Rocket 2.1 09:22:24 10° NNW 09:28:04 74° ENE 09:33:42 10° SSE
In-Cosmos 22 Rocket 4.1 09:24:54 10° N 09:30:19 90° WSW 09:35:50 10° S
Okean-O 2.5 09:26:12 10° SSE 09:30:35 67° ENE 09:35:00 10° N
Cosmos 1486 Rocket 4.0 09:25:20 10° N 09:30:37 59° ENE 09:35:49 10° SSE
Cosmos 2058 2.8 09:31:10 10° N 09:35:13 56° E 09:39:14 10° SSE
Cosmos 220 Rocket 4.4 09:31:25 10° SSW 09:35:42 64° WNW 09:40:04 10° N
CZ-2D R/B 3.4 09:33:36 10° S 09:37:24 74° W 09:41:12 10° NNW
OAO 1 Rocket 4.4 09:32:08 10° W 09:37:31 87° N 09:39:38 38° E
Cosmos 2360 4.1 09:33:32 10° SSW 09:39:15 79° ESE 09:44:59 10° NNE
CZ-2C R/B 3.2 09:33:42 10° SSE 09:39:27 66° ENE 09:45:05 10° N
Cosmos 1709 Rocket 4.4 09:34:28 10° N 09:40:21 37° ENE 09:43:03 26° ESE
Cosmos 1503 Rocket 4.4 09:35:37 10° N 09:40:30 39° ENE 09:40:59 38° E
NOAA 15 4.5 09:40:42 10° SSE 09:45:59 79° ENE 09:51:20 10° N
DMSP B5D1-3 4.4 09:41:14 10° NNE 09:46:24 81° ESE 09:51:33 10° S
Cosmos 1346 Rocket 2.6 09:44:27 10° N 09:48:27 85° E 09:51:47 14° S
Cosmos 883 Rocket 4.4 09:42:37 10° S 09:48:42 64° E 09:54:45 10° NNE
Cosmos 1315 Rocket 3.1 09:45:18 10° SSW 09:49:11 64° W 09:53:08 10° N
OAO 2 Rocket 3.1 09:45:03 10° W 09:50:03 87° N 09:51:07 56° E
Milstar 3 3.2 09:43:38 10° WSW 09:50:19 52° S 09:53:19 31° ESE
Meteor 2-10 Rocket 4.1 09:45:48 10° SSW 09:51:06 59° W 09:56:14 10° N
Cosmos 2278 3.6 09:45:53 10° SSW 09:51:33 71° ESE 09:54:50 26° NNE
Cosmos 1354 Rocket 4.4 09:47:28 10° N 09:51:56 42° NE 09:51:56 42° NE
S3M 4.2 09:47:59 10° SSW 09:54:02 68° W 10:00:10 10° N
Cosmos 2315 Rocket 3.9 09:48:51 10° S 09:54:54 58° E 10:00:58 10° NNE
Cosmos 2219 3.9 09:53:47 10° NNW 09:59:24 55° WSW 10:04:57 10° S
GPS 2-04 Rocket1 2.8 09:56:34 10° WSW 10:00:21 72° SW 10:00:21 72° SW
OAO 3 Rocket 4.3 09:59:04 10° W 10:03:24 34° SSW 10:04:30 30° S
ASTRO E2 3.4 10:01:17 10° WSW 10:04:31 46° SW 10:04:31 46° SW
ARGOS 3.4 10:08:24 50° NNE 10:08:24 50° NNE 10:12:43 10° N
Cosmos 2082 3.6 10:02:01 10° NNW 10:07:45 70° ENE 10:08:16 65° ESE
H-2A R/B 2.0 10:04:31 21° SSE 10:08:12 84° ENE 10:13:41 10° N
ATLAS 2AS CENTAUR R/B 4.2 10:07:58 10° N 10:12:15 21° NNE 10:12:15 21° NNE
Cosmos 1455 4.3 10:13:49 10° SW 10:17:00 26° WNW 10:20:13 10° NNW
SJ-11-01 4.5 10:20:40 67° W 10:20:40 67° W 10:25:10 10° NNW
SeaSat 1 4.3 10:24:28 19° N 10:24:28 19° N 10:25:58 10° N
Cosmos 1076 Rocket 4.4 10:17:12 10° NNW 10:20:24 44° NW 10:20:24 44° NW
CSL-04 Rocket 3.9 10:22:39 20° S 10:26:30 68° WSW 10:32:01 10° NNW
YAOGAN 1 4.4 10:27:08 10° SSW 10:30:53 29° W 10:34:40 10° NW
Cosmos 2227 Rocket 3.6 10:27:02 10° NW 10:32:10 36° WSW 10:37:16 10° S
Cosmos 2263 Rocket 4.5 10:32:02 10° N 10:32:37 13° N 10:32:37 13° N
Atlas Centaur 2 3.1 10:34:35 10° W 10:43:01 66° S 10:43:27 65° SSE
Cosmos 1980 Rocket 4.0 11:00:05 10° WSW 11:04:51 28° WNW 11:05:59 26° NW
